Tracking 29892 objects as of 21-Nov-2024
HD Live streaming from Space Station
objects crossing your sky now

ETV-A1

Track ETV-A1 now!
10-day predictions


NORAD ID: 51060
Int'l Code: 2022-002CE
Perigee: 490.7 km
Apogee: 499.4 km
Inclination: 97.4 °
Period: 94.4 minutes
Semi major axis: 6866 km
RCS: Unknown
Launch date: January 13, 2022
Source: United Kingdom (UK)
Launch site: AIR FORCE EASTERN TEST RANGE (AFETR)
Your satellite tracking list
Your tracking list is empty




NASA's NSSDC Master Catalog

Two Line Element Set (TLE):
1 51060U 22002CE  24326.11639510  .00012964  00000-0  50697-3 0  9993
2 51060  97.3699  26.1998 0006300 226.0226 134.0493 15.25958014158010
Source of the keplerian elements: AFSPC